This is the latest recevied weather packets stored in our database for station/object W4MLN-3. If no packets are shown the sender has not sent any weather packets the latest 10 day(s).
| Time | Temp. | Humidity | Pressure | Rain* | Wind** | Luminosity | Snow |
|---|---|---|---|---|---|---|---|
| 1777572903 | 16.11° C | 47% | 1011.3 hPa | 0 mm | - | - | - |
| 1777572604 | 16.11° C | 51% | 1011.2 hPa | 0 mm | - | - | - |
| 1777572324 | 16.11° C | 51% | 1011.2 hPa | 0 mm | - | - | - |
| 1777572003 | 16.11° C | 53% | 1011.3 hPa | 0 mm | - | - | - |
| 1777571704 | 15.56° C | 50% | 1011.3 hPa | 0 mm | - | - | - |
| 1777571404 | 15° C | 54% | 1011.5 hPa | 0 mm | - | - | - |
| 1777571103 | 15° C | 52% | 1011.4 hPa | 0 mm | - | - | - |
| 1777570803 | 15° C | 54% | 1011.5 hPa | 0 mm | - | - | - |
| 1777570524 | 14.44° C | 53% | 1011.5 hPa | 0 mm | - | - | - |
| 1777570224 | 15° C | 50% | 1011.5 hPa | 0 mm | - | - | - |
| 1777569903 | 15° C | 54% | 1011.4 hPa | 0 mm | - | - | - |
| 1777569603 | 15° C | 53% | 1011.3 hPa | 0 mm | - | - | - |
| 1777569303 | 15° C | 53% | 1011.3 hPa | 0 mm | - | - | - |
| 1777569003 | 15° C | 57% | 1011.4 hPa | 0 mm | - | - | - |
| 1777568703 | 15° C | 57% | 1011.3 hPa | 0 mm | - | - | - |
| 1777568404 | 14.44° C | 56% | 1011.3 hPa | 0 mm | - | - | - |
| 1777568103 | 14.44° C | 56% | 1011.3 hPa | 0 mm | - | - | - |
| 1777567804 | 14.44° C | 55% | 1011.3 hPa | 0 mm | - | - | - |
| 1777567503 | 13.89° C | 57% | 1011.4 hPa | 0 mm | - | - | - |
| 1777567203 | 13.89° C | 56% | 1011.4 hPa | 0 mm | - | - | - |
| 1777566903 | 14.44° C | 58% | 1011.2 hPa | 0 mm | - | - | - |
| 1777566603 | 14.44° C | 57% | 1011.1 hPa | 0 mm | - | - | - |
| 1777566303 | 14.44° C | 57% | 1011.3 hPa | 0 mm | - | - | - |
| 1777566003 | 14.44° C | 58% | 1011.2 hPa | 0 mm | - | - | - |
| 1777565703 | 13.89° C | 58% | 1011.3 hPa | 0 mm | - | - | - |
* Rain latest hour (hover to see other rain measurements)
** Current wind speed in m/s (hover to see current wind gust speed)